Weather in Szczuczyn

Poland     53°33′45″N   22°17′13″E
temp.,
°C
wind,
m/s
gust,
m/s
humid.,
%
clouds,
%
prec.,
mm/h
press.,
hPa
HPBL,
m
20 june, sun
sun2023:00+20sse36880 0.0 101796
02:00+17se36910 0.0 101891
05:00+17sse36920 0.0 1017105
08:00+22se46750 0.0 1016388
11:00+26sse57600 0.0 10171272
14:00+28sse465464 0.3 10151893
17:00+28sse475614 0.0 10141795
20:00+23sse38840 0.9 1013191
21 june, mon
mon2123:00+20se36920 0.1 101496
02:00+19se36945 0.1 1013116
05:00+18se37944 0.0 1013146
08:00+22se57794 0.0 1013428
11:00+26se68585 0.0 10121158
14:00+28se585133 0.0 10112115
17:00+25se46692 0.1 1010544
20:00+22se37810 0.5 1010170
22 june, tue
tue2223:00+19se38900 0.1 1010142
02:00+18sse37941 0.1 1010138
05:00+18se37955 0.0 1010144
08:00+23se467814 0.0 1010443
11:00+27sse566328 0.0 10101353
14:00+26sse4567100 1.6 10111131
17:00+27sse3362100 0.4 10111021
20:00+24sse1179100 2.8 101211
23 june, wed
wed2323:00+20ssw3593100 5.1 1013110
02:00+20ne339487 6.1 101356
05:00+19nne129774 4.1 101462
08:00+21ene229285 7.2 1014257
11:00+26se2474100 0.3 1014787
14:00+28sse346681 1.6 10141256
17:00+28sse35604 0.3 10141196
20:00+24wsw338098 2.5 101437
24 june, thu
thu2423:00+21wnw118796 2.0 101511
02:00+20wnw229098 2.2 101619
05:00+18nw23967 0.0 101661
08:00+21nnw228722 0.0 1016308
11:00+26nw017247 0.0 1016801
14:00+27ssw336576 0.1 10151282
17:00+27ssw33605 0.0 10151129
20:00+24nw22771 0.0 101422